Location: Nelson
(38.9945°N, 93.0321°W)
Time: 15:02:02
(UTC+00:00)

ACS3 Solar Sail - Pass Details

Date: 29 June 2024
Orbit: 993 x 1023 km, 97.4° (Epoch: 19 July)

Event Time Altitude Azimuth Distance (km) Brightness Sun altitude
Exits shadow 04:15:07 24° 201° (SSW) 1,936 6.0 -21.7°
Maximum altitude 04:18:38 47° 263° (W) 1,290 5.5 -22.0°
Drops below altitude 10° 04:24:36 10° 336° (NNW) 2,764 8.3 -22.6°
Sets 04:27:12 0° 343° (NNW) 3,716 9.3 -22.8°
